This is the latest recevied weather packets stored in our database for station/object K1BES. If no packets are shown the sender has not sent any weather packets the latest 10 day(s).
| Time | Temp. | Humidity | Pressure | Rain* | Wind** | Luminosity | Snow |
|---|---|---|---|---|---|---|---|
| 1777855905 | 22.22° C | 81% | 1017.7 hPa | 0 mm | - | 0 W/m² | - |
| 1777855603 | 22.22° C | 80% | 1017.8 hPa | 0 mm | - | 0 W/m² | - |
| 1777855300 | 22.78° C | 80% | 1017.8 hPa | 0 mm | - | 0 W/m² | - |
| 1777854996 | 22.78° C | 80% | 1017.7 hPa | 0 mm | - | 0 W/m² | - |
| 1777854693 | 22.78° C | 80% | 1017.7 hPa | 0 mm | - | 0 W/m² | - |
| 1777854390 | 22.78° C | 80% | 1017.5 hPa | 0 mm | - | 0 W/m² | - |
| 1777854088 | 22.78° C | 80% | 1017.3 hPa | 0 mm | - | 0 W/m² | - |
| 1777853785 | 22.78° C | 80% | 1017.4 hPa | 0 mm | - | 0 W/m² | - |
| 1777853481 | 22.78° C | 81% | 1017.4 hPa | 0 mm | - | 0 W/m² | - |
| 1777853179 | 22.78° C | 80% | 1017.4 hPa | 0 mm | - | 1 W/m² | - |
| 1777852876 | 22.78° C | 80% | 1017.2 hPa | 0 mm | - | 2 W/m² | - |
| 1777852574 | 22.78° C | 80% | 1017.2 hPa | 0 mm | - | 3 W/m² | - |
| 1777852270 | 22.78° C | 79% | 1017.5 hPa | 0 mm | - | 4 W/m² | - |
| 1777851969 | 22.78° C | 79% | 1017.5 hPa | 0 mm | - | 5 W/m² | - |
| 1777851666 | 22.78° C | 79% | 1017.3 hPa | 0 mm | - | 6 W/m² | - |
| 1777851363 | 22.78° C | 78% | 1017.1 hPa | 0 mm | - | 9 W/m² | - |
| 1777851058 | 23.33° C | 78% | 1017.2 hPa | 0 mm | - | 12 W/m² | - |
| 1777850756 | 23.33° C | 78% | 1017.2 hPa | 0 mm | - | 11 W/m² | - |
| 1777850453 | 23.33° C | 77% | 1017.3 hPa | 0 mm | - | 16 W/m² | - |
| 1777850151 | 23.33° C | 77% | 1017 hPa | 0 mm | - | 19 W/m² | - |
| 1777849847 | 23.33° C | 76% | 1017.1 hPa | 0 mm | - | 26 W/m² | - |
| 1777849544 | 23.33° C | 76% | 1017 hPa | 0 mm | - | 34 W/m² | - |
| 1777849241 | 23.33° C | 76% | 1016.9 hPa | 0 mm | - | 36 W/m² | - |
| 1777848939 | 23.89° C | 76% | 1016.9 hPa | 0 mm | - | 25 W/m² | - |
| 1777848639 | 23.33° C | 76% | 1016.7 hPa | 0 mm | - | 58 W/m² | - |
* Rain latest hour (hover to see other rain measurements)
** Current wind speed in m/s (hover to see current wind gust speed)